This demonstration page uses our WeatherBlox Daily Observations layout. Learn more.

Left ArrowRight Arrow

Hourly Observations for June 3, 2016

Temp ( °F °C ) Dew Point ( °F °C ) Humidity (%) Winds ( mph kmh ) Pressure ( in mb ) Visibility ( mi km ) Precip ( " mm )
12:54 am 00:54 Clear 64 17.8 54 12.2 70 70 S 7 11 30 1016 10 16.0934 0 0
1:54 am 01:54 Clear 68 20 54 12.2 61 61 SSW 8 13 29.98 1015 10 16.0934 0 0
2:54 am 02:54 Clear 66 18.9 55 12.8 68 68 SSW 5 7 29.97 1015 10 16.0934 0 0
3:54 am 03:54 Clear 62 16.7 54 12.2 75 75 S 6 9 29.96 1015 10 16.0934 0 0
4:54 am 04:54 Clear 60 15.6 53 11.7 78 78 S 6 9 29.96 1015 10 16.0934 0 0
5:54 am 05:54 Clear 59 15 53 11.7 81 81 S 6 9 29.97 1015 10 16.0934 0 0
6:54 am 06:54 Sunny 62 16.7 55 12.8 78 78 S 8 13 29.98 1015 10 16.0934 0 0
7:54 am 07:54 Sunny 69 20.6 55 12.8 61 61 S 10 17 29.98 1015 10 16.0934 0 0
8:54 am 08:54 Sunny 73 22.8 54 12.2 51 51 S 12 19 29.97 1015 10 16.0934 0 0
9:54 am 09:54 Sunny 77 25 54 12.2 45 45 S 15 24 29.96 1014 10 16.0934 0 0
10:54 am 10:54 Sunny 79 26.1 52 11.1 39 39 S 16 26 29.95 1014 10 16.0934 0 0
11:54 am 11:54 Sunny 81 27.2 53 11.7 38 38 S 16 26 29.92 1013 10 16.0934 0 0
12:54 pm 12:54 Sunny 84 28.9 53 11.7 34 34 S 22 35 29.88 1012 10 16.0934 0 0
1:54 pm 13:54 Sunny 86 30 50 10 29 29 SSW 17 28 29.89 1012 10 16.0934 0 0
2:54 pm 14:54 Sunny 87 30.6 52 11.1 30 30 SSW 20 31 29.88 1012 10 16.0934 0 0
3:54 pm 15:54 Sunny 88 31.1 49 9.4 26 26 SW 17 28 29.87 1011 10 16.0934 0 0
4:54 pm 16:54 Mostly Sunny 88 31.1 52 11.1 29 29 SSW 17 28 29.85 1011 10 16.0934 0 0
5:54 pm 17:54 Sunny 88 31.1 54 12.2 31 31 SSW 20 31 29.83 1010 10 16.0934 0 0
6:54 pm 18:54 Sunny 86 30 55 12.8 35 35 SW 16 26 29.83 1010 10 16.0934 0 0
7:39 pm 19:39 Mostly Cloudy with Thunderstorms 85 29.4 57 13.9 39 39 SW 12 19 29.77 1008 10 16.0934 0 0
7:54 pm 19:54 Mostly Cloudy with Thunderstorms 84 28.9 57 13.9 40 40 W 10 17 29.85 1011 10 16.0934 0 0
8:10 pm 20:10 Cloudy with Heavy Thunderstorms 70 21 66 19 88 88 NNW 18 30 29.88 1012 1.75 2.816345 0 0
8:17 pm 20:17 Cloudy with Light Thunderstorms 70 21.1 65 18.3 84 84 NNE 16 26 29.88 1012 2 3.21868 0.07 1.778
8:24 pm 20:24 Cloudy with Light Thunderstorms 70 21 64 18 83 83 NE 9 15 29.88 1012 10 16.0934 0 0
8:54 pm 20:54 Mostly Cloudy with Nearby Thunderstorms 70 21.1 64 17.8 82 82 E 13 20 29.93 1014 10 16.0934 0.07 1.778
9:14 pm 21:14 Partly Cloudy 70 21 63 17 78 78 E 10 17 29.94 1014 10 16.0934 0 0
9:54 pm 21:54 Mostly Clear 68 20 63 17.2 84 84 Calm 29.94 1014 10 16.0934 0 0
10:54 pm 22:54 Clear 67 19.4 64 17.8 91 91 WSW 3 6 29.95 1014 10 16.0934 0 0
11:54 pm 23:54 Clear 66 18.9 63 17.2 90 90 W 3 6 29.94 1014 10 16.0934 0 0

Powered by AerisWeather